This demonstration page uses our WeatherBlox Daily Observations layout. Learn more.

Left ArrowRight Arrow

Hourly Observations for March 10, 2022

Temp ( °F °C ) Dew Point ( °F °C ) Humidity (%) Winds ( mph kmh ) Pressure ( in mb ) Visibility ( mi km ) Precip ( " mm )
12:15 am 00:15 Cloudy with Light Snow 18 -8 14 -10 86 86 NE 9 15 30.39 1029 2 3 0.00 0.00
12:35 am 00:35 Cloudy with Light Snow 18 -8 14 -10 86 86 ENE 8 13 30.39 1029 2 3 0.00 0.00
12:55 am 00:55 Cloudy with Light Snow 18 -8 12 -11 79 79 ENE 7 11 30.39 1029 2 3 0.00 0.00
1:15 am 01:15 Cloudy with Light Snow 18 -8 14 -10 86 86 NE 8 13 30.39 1029 2 3 0.00 0.00
1:35 am 01:35 Cloudy with Light Snow 18 -8 14 -10 86 86 NE 7 11 30.40 1029 1 2 0.00 0.00
1:55 am 01:55 Cloudy with Light Snow 18 -8 14 -10 86 86 NNE 7 11 30.41 1030 2 3 0.00 0.00
2:15 am 02:15 Cloudy with Light Snow 18 -8 12 -11 79 79 NNE 8 13 30.42 1030 2 2 0.00 0.00
2:35 am 02:35 Cloudy with Light Snow 18 -8 12 -11 79 79 NNE 8 13 30.42 1030 2 3 0.00 0.00
2:55 am 02:55 Cloudy with Light Snow 16 -9 12 -11 86 86 NE 5 7 30.41 1030 2 3 0.00 0.00
3:15 am 03:15 Cloudy with Light Snow 16 -9 12 -11 86 86 NE 5 7 30.41 1030 2 3 0.00 0.00
3:35 am 03:35 Cloudy with Light Snow 16 -9 12 -11 86 86 NE 3 6 30.40 1029 3 4 0.00 0.00
3:55 am 03:55 Cloudy with Light Snow 16 -9 12 -11 86 86 NNE 5 7 30.41 1030 2 3 0.00 0.00
4:15 am 04:15 Cloudy with Light Snow 16 -9 12 -11 86 86 NNE 5 7 30.41 1030 3 4 0.00 0.00
4:35 am 04:35 Cloudy with Light Snow 16 -9 12 -11 86 86 NE 5 7 30.41 1030 3 5 0.00 0.00
4:55 am 04:55 Cloudy with Light Snow 16 -9 12 -11 86 86 NNE 5 7 30.42 1030 2 3 0.00 0.00
5:35 am 05:35 Cloudy with Light Snow 16 -9 12 -11 86 86 NNE 6 9 30.43 1030 3 5 0.00 0.00
5:55 am 05:55 Cloudy with Light Snow 16 -9 12 -11 86 86 NNE 5 7 30.42 1030 3 5 0.00 0.00
6:15 am 06:15 Cloudy with Light Snow 14 -10 12 -11 92 92 NNE 6 9 30.43 1030 7 11 0.00 0.00
6:35 am 06:35 Cloudy with Light Snow 14 -10 12 -11 92 92 NNE 6 9 30.43 1030 7 11 0.00 0.00
6:55 am 06:55 Cloudy with Light Snow 14 -10 12 -11 92 92 NNE 6 9 30.44 1031 5 8 0.00 0.00
7:15 am 07:15 Cloudy with Light Snow 14 -10 12 -11 92 92 N 5 7 30.44 1031 7 11 0.00 0.00
7:35 am 07:35 Cloudy with Light Snow 14 -10 12 -11 92 92 NNE 5 7 30.44 1031 7 11 0.00 0.00
7:55 am 07:55 Cloudy with Light Snow 16 -9 12 -11 86 86 NNE 6 9 30.43 1030 7 11 0.00 0.00
8:15 am 08:15 Cloudy with Light Snow 18 -8 12 -11 79 79 N 7 11 30.44 1031 7 11 0.00 0.00
8:35 am 08:35 Cloudy with Light Snow 18 -8 12 -11 79 79 NNE 7 11 30.44 1031 7 11 0.00 0.00
8:55 am 08:55 Cloudy with Light Snow 18 -8 12 -11 79 79 NNE 8 13 30.45 1031 5 8 0.00 0.00
9:15 am 09:15 Cloudy with Light Snow 18 -8 12 -11 79 79 NNE 8 13 30.45 1031 4 6 0.00 0.00
9:35 am 09:35 Cloudy with Light Snow 19 -7 12 -11 73 73 NE 7 11 30.44 1031 3 5 0.00 0.00
9:55 am 09:55 Cloudy with Light Snow 19 -7 12 -11 73 73 NNE 6 9 30.44 1031 4 6 0.00 0.00
10:15 am 10:15 Cloudy with Light Snow 19 -7 14 -10 79 79 N 10 17 30.45 1031 4 6 0.00 0.00
10:35 am 10:35 Cloudy with Light Snow 19 -7 12 -11 73 73 N 9 15 30.45 1031 4 6 0.00 0.00
10:55 am 10:55 Cloudy with Light Snow 19 -7 12 -11 73 73 NE 5 7 30.44 1031 3 5 0.00 0.00
11:15 am 11:15 Cloudy with Light Snow 19 -7 12 -11 73 73 NE 6 9 30.43 1030 5 8 0.00 0.00
11:35 am 11:35 Mostly Cloudy 21 -6 12 -11 68 68 NE 6 9 30.42 1030 7 11 0.00 0.00
11:55 am 11:55 Partly Cloudy 21 -6 12 -11 68 68 NE 6 9 30.42 1030 10 16 0.00 0.00
12:15 pm 12:15 Mostly Cloudy 21 -6 12 -11 68 68 NNE 7 11 30.41 1030 10 16 0.00 0.00
12:35 pm 12:35 Mostly Cloudy 21 -6 12 -11 68 68 NE 6 9 30.41 1030 10 16 0.00 0.00
12:55 pm 12:55 Mostly Cloudy 23 -5 12 -11 63 63 NE 6 9 30.39 1029 10 16 0.00 0.00
1:15 pm 13:15 Mostly Cloudy 23 -5 12 -11 63 63 E 6 9 30.38 1029 10 16 0.00 0.00
1:35 pm 13:35 Mostly Cloudy 21 -6 10 -12 63 63 NE 5 7 30.38 1029 10 16 0.00 0.00
1:55 pm 13:55 Cloudy 23 -5 10 -12 58 58 NE 5 7 30.36 1028 10 16 0.00 0.00
2:15 pm 14:15 Cloudy 21 -6 10 -12 63 63 NE 5 7 30.37 1028 10 16 0.00 0.00
2:35 pm 14:35 Cloudy with Light Snow 23 -5 12 -11 63 63 ENE 5 7 30.36 1028 10 16 0.00 0.00
2:55 pm 14:55 Cloudy 21 -6 10 -12 63 63 Calm 30.37 1028 10 16 0.00 0.00
3:15 pm 15:15 Cloudy 21 -6 12 -11 68 68 ENE 5 7 30.36 1028 10 16 0.00 0.00
3:35 pm 15:35 Cloudy 21 -6 10 -12 63 63 N 3 6 30.36 1028 10 16 0.00 0.00
3:55 pm 15:55 Mostly Cloudy 21 -6 10 -12 63 63 Calm 30.35 1028 10 16 0.00 0.00
4:15 pm 16:15 Partly Cloudy 21 -6 10 -12 63 63 Calm 30.35 1028 10 16 0.00 0.00
4:35 pm 16:35 Sunny 21 -6 10 -12 63 63 WNW 3 6 30.35 1028 10 16 0.00 0.00
4:55 pm 16:55 Sunny 21 -6 10 -12 63 63 Calm 30.35 1028 10 16 0.00 0.00
5:15 pm 17:15 Sunny 21 -6 10 -12 63 63 Calm 30.35 1028 10 16 0.00 0.00
5:35 pm 17:35 Partly Cloudy 21 -6 12 -11 68 68 W 6 9 30.36 1028 10 16 0.00 0.00
5:55 pm 17:55 Partly Cloudy 21 -6 12 -11 68 68 W 6 9 30.36 1028 10 16 0.00 0.00
6:15 pm 18:15 Sunny 19 -7 10 -12 68 68 WNW 7 11 30.38 1029 10 16 0.00 0.00
6:35 pm 18:35 Sunny 19 -7 12 -11 73 73 W 6 9 30.38 1029 10 16 0.00 0.00
6:55 pm 18:55 Clear 19 -7 10 -12 68 68 W 5 7 30.38 1029 10 16 0.00 0.00
7:15 pm 19:15 Clear 18 -8 10 -12 73 73 W 3 6 30.38 1029 10 16 0.00 0.00
7:35 pm 19:35 Clear 18 -8 10 -12 73 73 WNW 3 6 30.38 1029 10 16 0.00 0.00
7:55 pm 19:55 Clear 16 -9 10 -12 79 79 WNW 5 7 30.39 1029 10 16 0.00 0.00
8:15 pm 20:15 Clear 14 -10 9 -13 79 79 WNW 6 9 30.41 1030 10 16 0.00 0.00
8:35 pm 20:35 Clear 14 -10 9 -13 79 79 WNW 7 11 30.41 1030 10 16 0.00 0.00
8:55 pm 20:55 Clear 12 -11 7 -14 79 79 WNW 7 11 30.42 1030 10 16 0.00 0.00
9:15 pm 21:15 Clear 14 -10 9 -13 79 79 W 7 11 30.42 1030 10 16 0.00 0.00
9:35 pm 21:35 Clear 14 -10 9 -13 79 79 W 8 13 30.42 1030 10 16 0.00 0.00
9:55 pm 21:55 Clear 12 -11 7 -14 79 79 W 7 11 30.44 1031 10 16 0.00 0.00
10:15 pm 22:15 Clear 10 -12 5 -15 79 79 W 7 11 30.45 1031 10 16 0.00 0.00
10:35 pm 22:35 Clear 10 -12 5 -15 79 79 W 9 15 30.45 1031 10 16 0.00 0.00
10:55 pm 22:55 Clear 10 -12 5 -15 79 79 W 7 11 30.45 1031 10 16 0.00 0.00
11:15 pm 23:15 Clear 10 -12 5 -15 79 79 W 9 15 30.46 1032 10 16 0.00 0.00
11:35 pm 23:35 Clear 10 -12 5 -15 79 79 W 8 13 30.45 1031 10 16 0.00 0.00
11:55 pm 23:55 Clear 10 -12 5 -15 79 79 W 9 15 30.45 1031 10 16 0.00 0.00

Powered by AerisWeather